Temperature
26 25 25 25 26 26 26 25 25 25 26 25 24 24 24 24 24 23 23 23 23 22 21 21 20 20 19 19 19 18 18 18 17 17 17 16 16 16 16 16 16 16 16 16
25 25 26 27 26 26 26 25 25 26 26 25 25 25 25 25 24 24 23 23 23 22 22 21 20 20 19 19 19 18 18 18 17 17 17 16 16 16 16 16 16 16 15 15
25 26 27 26 26 26 25 25 25 25 25 26 25 24 24 25 24 23 23 23 22 22 22 21 20 20 19 19 19 18 18 18 17 17 17 16 16 16 16 16 16 15 15 15
26 27 26 26 25 25 25 26 25 25 24 24 25 23 24 24 24 23 23 23 22 22 22 21 20 20 19 19 19 18 18 18 17 17 16 16 16 16 16 16 16 15 15 15
26 26 26 25 25 25 25 26 25 25 24 24 25 24 24 24 23 23 23 22 22 21 21 20 20 19 19 18 18 18 18 17 17 17 16 16 16 16 16 16 16 15 15 15
26 26 26 26 26 26 25 25 25 25 24 23 24 24 23 24 24 23 23 22 22 21 21 20 20 19 18 18 18 17 17 17 17 17 16 16 16 16 16 16 15 15 15 15
25 26 26 26 25 25 25 24 22 22 22 23 25 24 23 24 25 24 23 22 22 21 20 20 19 19 18 18 17 17 17 17 17 17 16 16 16 16 16 16 15 15 15 15
24 24 25 25 25 24 25 24 22 22 22 23 25 24 23 25 24 24 23 22 21 21 20 20 19 18 18 17 17 17 17 16 16 16 16 16 16 16 16 16 15 15 15 15
24 24 25 25 25 25 24 24 25 23 23 23 24 23 23 24 24 23 23 22 21 21 20 19 19 18 17 17 17 16 16 16 16 16 16 16 16 16 16 16 15 15 15 15
24 23 25 25 25 25 24 24 24 23 22 22 23 23 22 22 22 22 22 21 21 20 20 19 18 18 17 17 16 16 16 16 16 16 16 16 16 16 16 16 15 15 15 15
24 23 24 24 24 24 24 24 23 23 22 21 21 22 24 23 23 22 22 21 21 20 20 19 18 18 17 17 16 16 16 16 16 16 16 16 16 15 15 15 15 15 15 15
24 23 22 24 25 25 24 24 23 22 22 22 21 21 24 23 23 22 21 21 20 20 19 18 18 17 17 16 16 16 16 15 15 15 15 15 15 15 15 15 15 15 15 15
22 22 21 22 23 23 23 24 24 23 22 21 21 21 23 23 22 21 21 20 20 19 19 18 17 17 17 16 16 16 16 15 15 15 15 15 15 15 15 15 15 15 14 14
20 21 21 21 22 22 22 23 23 22 21 21 22 21 22 22 21 21 20 20 19 19 18 17 17 17 16 16 16 16 15 15 15 15 15 15 15 15 15 15 15 14 14 14
21 21 21 22 23 23 22 22 22 22 21 21 21 21 21 21 21 20 20 19 19 18 18 17 17 16 16 16 16 16 15 15 15 15 14 14 14 14 14 14 14 14 14 14
21 20 21 21 22 22 22 22 22 22 21 21 21 21 22 21 21 20 19 19 18 18 17 17 16 16 16 16 16 15 15 15 15 14 14 14 14 14 14 14 14 14 14 14
21 20 20 20 21 21 20 21 21 21 21 21 20 20 21 20 20 19 19 18 18 17 17 16 16 16 16 15 15 15 15 15 14 14 14 14 13 14 13 13 13 13 13 13
20 20 19 19 20 19 20 21 21 20 20 21 20 20 20 20 19 19 18 18 17 17 16 16 16 16 15 15 15 15 14 14 14 14 14 13 13 13 13 13 13 13 13 13
20 19 19 19 18 19 20 20 20 19 19 20 20 19 19 19 19 18 18 17 17 16 16 16 15 15 15 15 15 14 14 14 14 14 13 13 13 13 13 13 13 13 13 13
20 19 18 18 18 18 19 19 20 19 18 19 19 18 18 18 17 17 17 17 16 16 15 15 15 15 15 15 14 14 14 14 14 13 13 13 13 12 12 12 12 12 12 12
18 18 17 17 17 18 18 19 19 17 17 18 18 17 17 17 17 16 16 16 15 15 15 15 14 14 14 14 14 14 14 14 13 13 13 13 12 12 12 12 12 12 12 12
18 17 17 17 17 17 17 18 18 17 17 17 17 16 16 16 16 15 15 15 14 14 14 14 14 14 14 14 14 13 13 13 13 13 12 12 12 12 12 12 12 12 12 12
18 18 17 17 16 17 17 17 16 16 16 16 15 15 15 15 15 14 14 14 14 14 14 14 14 13 13 13 13 13 13 13 13 12 12 12 12 12 12 11 11 11 11 11
18 18 17 17 17 17 16 16 15 15 15 15 15 15 14 14 14 14 14 13 13 13 13 13 13 13 13 13 13 13 13 12 12 12 12 12 11 11 11 11 11 11 11 11
16 16 16 16 16 16 16 15 15 15 14 14 14 14 14 14 13 13 13 13 13 13 13 12 12 12 12 12 12 12 12 12 12 12 11 11 11 11 11 11 11 11 11 11
16 16 15 15 15 15 15 14 14 14 14 14 13 13 13 13 13 13 12 12 12 12 12 12 12 12 12 12 11 11 11 11 11 11 11 11 11 11 11 11 11 10 10 10
Wind_Speed
7 6 5 5 5 6 5 5 4 2 1 3 4 4 4 5 5 5 5 5 7 7 8 8 7 6 5 5 5 6 6 5 4 3 2 2 2 2 2 3 5 5 6 6
6 6 5 4 5 6 7 7 5 3 2 4 5 4 4 5 5 4 5 5 5 7 8 8 8 7 6 5 5 5 6 6 5 3 3 2 3 2 3 2 3 4 4 4
7 3 3 5 6 7 7 6 5 5 6 7 7 5 5 6 5 4 3 3 3 5 7 8 8 7 6 5 5 5 5 5 6 5 3 2 3 2 3 2 2 2 4 3
6 5 4 6 5 6 6 4 6 7 7 5 6 4 5 6 7 6 5 4 4 3 5 7 6 6 6 5 4 4 4 5 5 5 3 3 3 3 3 2 2 1 3 3
5 3 5 6 5 6 6 6 8 9 8 9 9 5 3 6 6 6 6 5 4 4 5 6 6 6 5 5 4 4 3 4 4 5 5 3 3 2 2 2 3 2 2 2
9 6 5 5 4 5 7 9 11 10 7 8 8 6 2 3 4 6 6 6 6 5 5 6 7 6 5 5 5 4 4 3 3 3 4 4 4 3 3 2 2 2 2 1
8 9 6 4 6 6 7 7 4 4 5 4 3 3 2 5 5 5 6 6 6 6 6 6 7 6 6 5 5 5 4 3 3 3 3 4 4 3 3 3 2 2 2 1
7 5 4 3 5 5 7 7 5 4 4 4 3 2 4 7 7 6 6 6 5 6 6 6 7 7 6 6 5 4 4 4 3 2 2 2 4 2 2 2 3 2 2 2
6 3 2 3 4 6 6 6 7 8 10 8 3 2 3 5 7 6 5 6 5 5 6 6 6 7 7 6 5 5 5 4 3 2 2 2 3 3 2 1 2 2 2 2
7 8 5 4 5 8 8 8 6 5 5 6 4 3 3 6 6 5 5 4 4 5 5 6 5 6 6 6 6 5 5 4 3 2 2 2 2 3 2 2 1 1 1 2
9 9 7 6 7 7 8 8 6 5 6 5 5 1 3 5 5 5 4 5 4 4 5 6 5 5 6 5 6 6 5 4 3 3 3 2 2 2 2 2 2 2 1 2
6 6 10 10 5 5 8 8 8 6 6 6 6 1 2 4 5 5 4 5 4 4 5 5 6 5 5 5 5 5 5 5 4 3 3 2 2 2 2 2 2 1 2 1
6 6 8 6 4 5 7 7 7 7 7 8 7 2 3 3 5 5 4 4 4 5 5 5 5 4 4 4 4 5 5 5 4 4 3 2 1 2 2 1 1 1 2 1
4 8 10 10 8 6 8 9 8 8 7 9 9 4 2 1 3 3 3 2 3 5 5 4 3 3 3 3 3 4 4 4 5 4 3 2 1 2 2 1 1 1 1 1
5 10 13 14 13 11 12 12 10 11 10 10 8 6 4 1 2 2 2 2 3 4 3 3 3 2 2 3 3 3 3 4 5 5 4 3 2 2 3 2 2 1 1 1
7 9 13 15 14 12 13 12 12 11 11 11 8 7 3 1 2 2 1 1 2 2 3 2 2 2 2 2 3 3 3 3 4 5 4 3 3 2 3 3 2 2 2 1
7 9 10 12 13 12 11 8 8 8 8 9 8 5 1 2 2 1 0 1 1 2 2 2 1 1 2 2 2 3 3 3 4 4 4 4 4 3 3 3 3 2 2 2
9 10 7 9 11 11 4 2 3 4 5 5 4 2 2 1 1 1 1 0 1 2 1 1 0 0 1 1 2 2 3 3 4 4 4 4 4 3 2 3 3 3 2 2
9 8 7 8 10 9 4 1 2 4 5 4 3 2 3 3 1 1 2 3 3 3 2 1 1 1 1 1 1 2 2 3 3 4 4 4 4 4 3 4 4 3 2 2
8 9 8 8 9 8 2 2 2 4 4 3 4 3 3 3 2 1 4 4 4 3 2 1 2 1 1 1 1 2 3 3 3 4 4 3 4 4 4 4 4 3 3 3
6 8 10 10 10 6 2 3 2 3 2 5 5 4 4 4 3 3 4 5 4 3 1 1 1 1 2 2 1 3 3 3 3 3 3 3 3 3 4 3 3 3 4 3
6 5 7 7 8 4 3 3 2 3 5 5 5 5 5 5 4 4 4 4 3 3 2 1 1 2 2 2 3 3 3 3 2 3 3 3 3 3 3 3 3 3 4 4
5 4 3 3 2 2 3 3 4 5 5 5 6 6 5 5 4 4 4 3 3 3 2 2 1 2 2 2 2 3 2 2 3 3 4 3 3 2 2 3 3 2 3 3
5 5 6 6 3 3 3 4 5 5 5 6 6 5 4 4 4 4 4 4 3 3 3 2 2 2 2 2 2 2 2 2 3 4 4 4 4 3 3 3 3 3 3 3
6 5 7 9 7 4 3 3 4 5 6 7 6 5 4 4 4 4 4 4 4 3 2 2 1 2 3 3 2 2 1 2 2 3 3 4 4 4 3 3 3 4 4 4
8 8 8 8 6 6 6 5 5 5 6 7 6 6 5 4 4 4 4 4 3 3 3 2 2 2 2 3 2 2 1 2 2 3 3 3 3 3 3 3 2 3 4 5
Wind_Direction
218 231 240 252 256 271 278 285 292 295 178 257 241 225 189 178 186 183 190 194 179 169 162 155 149 147 147 139 132 129 131 125 113 106 102 103 101 90 75 72 67 62 72 87
241 235 246 266 276 276 277 278 281 287 244 255 266 252 196 177 189 184 192 195 183 169 165 155 153 153 152 146 140 138 139 135 129 128 134 138 124 113 101 80 75 73 80 80
243 241 238 252 259 269 269 275 294 298 290 260 256 251 195 168 170 170 182 183 167 162 165 160 159 155 153 150 148 146 143 139 136 136 123 122 105 105 99 98 88 77 91 85
253 248 252 262 265 280 284 299 291 282 279 271 256 262 194 173 170 170 178 172 161 155 148 145 145 144 144 140 135 131 132 133 131 130 129 133 128 128 131 125 127 128 113 104
263 260 265 265 278 286 293 299 286 279 276 276 264 260 197 174 172 168 166 160 149 142 133 134 134 129 129 132 128 128 133 128 128 137 142 141 123 128 122 120 135 121 101 106
255 249 252 270 285 278 288 280 269 255 258 261 250 242 182 177 153 150 145 150 153 146 138 135 127 122 120 119 119 121 123 114 120 140 139 140 128 126 121 110 116 109 109 87
244 230 212 230 263 248 252 274 285 246 227 246 234 230 148 121 110 127 136 138 143 145 144 137 130 131 125 121 122 123 122 125 132 137 142 140 136 139 144 140 138 136 137 149
263 239 196 203 253 275 266 264 271 292 291 300 265 215 124 115 107 110 118 124 124 133 135 139 141 140 136 133 133 134 131 128 127 135 132 132 135 137 146 154 152 162 168 164
299 283 205 213 251 271 275 270 278 287 288 282 248 139 124 120 123 114 109 116 124 123 126 125 130 137 138 140 143 142 134 130 129 124 134 130 123 120 125 149 148 155 162 157
288 291 265 233 229 238 254 282 292 282 292 283 272 225 175 157 138 131 122 123 122 123 125 121 122 131 138 149 152 145 142 142 140 145 137 126 121 134 140 131 110 121 127 116
284 284 274 242 235 251 241 251 264 274 268 281 293 339 84 120 125 131 132 128 119 114 123 123 126 135 135 141 151 150 147 141 139 145 136 126 131 128 132 133 145 148 127 120
287 284 279 265 244 259 272 264 265 267 276 276 277 255 84 111 115 101 105 114 112 118 109 113 124 124 139 153 163 161 156 152 150 150 141 132 147 155 152 145 147 136 134 139
328 279 277 267 215 222 253 263 272 281 279 271 271 233 132 106 101 98 90 97 110 112 109 105 109 125 137 154 164 164 159 157 152 150 150 148 157 163 145 155 158 152 142 135
302 276 274 277 293 295 276 276 277 274 269 271 276 272 206 123 92 89 87 80 106 110 113 114 111 124 133 142 156 162 165 159 150 150 158 164 173 158 157 165 140 139 132 146
263 273 280 284 286 282 279 278 273 269 272 274 282 289 287 3 96 101 111 102 97 104 109 125 131 130 139 158 161 147 156 159 155 154 160 178 178 148 158 150 147 146 134 134
258 272 284 284 281 275 274 273 267 266 272 274 274 278 301 53 63 91 81 73 106 123 128 125 143 152 168 181 170 158 153 165 159 161 166 171 162 146 159 157 156 157 142 118
262 267 280 282 288 284 268 272 268 261 267 273 276 284 341 31 5 24 61 212 171 130 127 133 177 198 188 199 188 167 165 169 163 164 158 157 156 148 164 168 162 164 161 146
265 273 274 278 282 270 265 349 333 296 285 293 301 320 330 0 357 49 55 13 53 58 86 85 299 275 280 218 178 168 168 169 157 158 161 163 162 160 169 171 167 174 178 170
253 264 272 272 274 274 253 313 309 291 291 318 315 330 351 360 335 26 60 44 46 29 46 42 314 307 283 278 187 158 168 163 159 160 167 171 170 169 174 177 176 183 187 194
244 249 257 266 271 273 307 25 343 289 265 22 17 7 357 325 298 26 43 36 31 22 34 2 320 307 292 284 197 181 187 181 179 171 174 182 177 174 181 186 185 183 174 195
235 239 243 257 263 270 5 357 314 268 9 29 15 12 352 346 7 12 15 16 9 356 352 330 313 304 288 288 232 205 206 196 178 164 172 185 189 188 185 183 182 181 181 192
272 261 249 252 255 263 36 349 349 11 11 1 359 359 356 0 12 7 4 355 342 332 322 296 282 281 278 262 238 217 204 185 170 171 181 192 194 193 194 183 187 186 185 195
263 280 292 283 283 0 32 21 1 354 346 353 350 351 346 338 342 338 337 331 323 320 314 310 291 285 277 268 246 237 187 164 181 186 195 195 196 187 185 185 184 185 186 199
284 309 294 287 275 310 338 358 2 351 342 337 328 328 330 326 333 337 335 328 322 313 305 306 305 291 281 274 269 252 196 185 199 199 196 196 195 196 194 190 188 185 194 206
296 299 286 280 286 296 293 322 334 337 333 324 317 315 321 322 320 322 320 319 316 312 311 298 270 286 293 292 292 269 207 185 205 205 200 202 202 195 194 194 199 199 203 202
271 273 272 274 293 296 300 308 317 317 316 318 322 324 327 322 319 324 322 315 316 322 323 321 321 312 306 307 303 286 237 213 207 213 214 208 203 198 194 191 203 218 213 209
Height
1496 1499 1500 1496 1494 1494 1494 1497 1499 1496 1492 1495 1498 1498 1497 1499 1501 1503 1505 1506 1508 1510 1513 1515 1517 1519 1521 1523 1524 1525 1526 1527 1528 1529 1530 1531 1532 1532 1533 1534 1534 1535 1535 1536
1497 1498 1493 1492 1492 1492 1494 1498 1498 1494 1491 1494 1496 1495 1494 1496 1498 1500 1502 1504 1506 1508 1511 1513 1516 1518 1520 1521 1523 1524 1525 1526 1528 1529 1530 1531 1532 1533 1533 1534 1534 1535 1536 1536
1496 1494 1491 1492 1493 1495 1495 1497 1498 1498 1493 1491 1495 1498 1494 1493 1496 1499 1500 1502 1504 1506 1509 1511 1514 1516 1518 1520 1522 1523 1524 1526 1527 1528 1529 1531 1532 1532 1533 1534 1534 1535 1536 1536
1491 1489 1490 1492 1494 1494 1499 1492 1493 1495 1499 1500 1495 1509 1496 1492 1494 1496 1499 1500 1503 1505 1507 1509 1512 1514 1516 1518 1520 1522 1523 1525 1526 1527 1528 1530 1531 1532 1533 1534 1534 1535 1536 1537
1491 1489 1491 1494 1493 1493 1494 1491 1492 1493 1497 1500 1494 1501 1497 1489 1494 1494 1496 1499 1502 1504 1506 1508 1510 1513 1515 1517 1519 1521 1522 1524 1525 1526 1528 1529 1530 1532 1533 1534 1535 1536 1536 1537
1489 1488 1489 1491 1490 1491 1491 1492 1491 1491 1497 1508 1494 1498 1501 1491 1490 1491 1494 1497 1500 1502 1505 1507 1509 1511 1514 1516 1517 1519 1521 1523 1524 1525 1527 1528 1530 1531 1532 1534 1534 1535 1536 1537
1490 1487 1486 1489 1492 1491 1492 1501 1510 1510 1511 1504 1486 1493 1496 1486 1485 1488 1492 1495 1498 1501 1503 1505 1507 1509 1512 1514 1516 1518 1520 1521 1523 1525 1526 1528 1529 1531 1532 1533 1534 1535 1536 1536
1496 1495 1487 1488 1492 1495 1493 1497 1512 1519 1513 1501 1487 1494 1490 1483 1486 1488 1491 1494 1497 1500 1502 1504 1506 1508 1510 1512 1514 1516 1518 1520 1522 1523 1525 1527 1528 1530 1531 1532 1533 1534 1535 1535
1496 1495 1485 1486 1488 1490 1494 1493 1490 1500 1500 1504 1495 1491 1489 1484 1486 1489 1492 1494 1497 1499 1501 1504 1506 1508 1510 1511 1513 1515 1517 1519 1520 1522 1524 1525 1527 1528 1530 1531 1532 1533 1534 1534
1493 1497 1488 1486 1488 1488 1490 1491 1495 1502 1512 1513 1500 1494 1495 1489 1489 1490 1492 1495 1497 1499 1501 1503 1505 1507 1509 1511 1512 1514 1516 1518 1519 1521 1522 1524 1525 1527 1528 1529 1530 1532 1533 1533
1493 1497 1493 1488 1489 1490 1490 1492 1494 1497 1499 1511 1513 1504 1484 1485 1487 1489 1492 1494 1496 1498 1500 1502 1504 1506 1508 1510 1511 1513 1515 1517 1518 1519 1521 1522 1524 1525 1527 1528 1529 1530 1531 1532
1493 1497 1498 1489 1482 1483 1485 1488 1492 1504 1504 1500 1505 1503 1482 1484 1486 1489 1491 1493 1495 1497 1499 1501 1503 1505 1507 1509 1510 1512 1513 1515 1517 1518 1519 1521 1522 1524 1525 1526 1527 1529 1529 1530
1498 1500 1504 1498 1492 1487 1487 1486 1487 1491 1496 1500 1505 1501 1484 1485 1487 1490 1492 1493 1495 1497 1499 1501 1502 1504 1506 1508 1509 1510 1512 1513 1515 1516 1518 1519 1520 1522 1523 1525 1526 1527 1528 1528
1502 1500 1503 1506 1497 1491 1491 1488 1488 1493 1500 1499 1495 1493 1488 1487 1489 1491 1493 1494 1495 1496 1498 1500 1502 1503 1505 1506 1508 1509 1510 1512 1513 1514 1516 1517 1518 1520 1521 1522 1524 1525 1526 1527
1499 1500 1495 1490 1487 1487 1488 1487 1487 1490 1491 1495 1492 1490 1488 1487 1489 1491 1492 1493 1495 1496 1498 1500 1501 1502 1504 1505 1506 1507 1508 1510 1511 1512 1513 1515 1516 1517 1519 1520 1521 1523 1524 1525
1497 1498 1496 1493 1486 1484 1485 1485 1485 1486 1487 1487 1487 1489 1485 1487 1489 1491 1493 1494 1495 1496 1497 1499 1500 1501 1502 1503 1504 1505 1506 1507 1508 1510 1511 1512 1514 1515 1516 1517 1519 1520 1522 1522
1496 1497 1500 1497 1487 1485 1489 1483 1482 1484 1483 1485 1488 1487 1485 1487 1489 1491 1492 1494 1494 1495 1496 1498 1499 1500 1501 1502 1502 1503 1504 1505 1506 1507 1509 1510 1511 1512 1514 1515 1516 1518 1519 1520
1496 1496 1497 1497 1495 1501 1488 1479 1479 1482 1483 1482 1484 1484 1485 1487 1489 1490 1491 1492 1493 1494 1495 1496 1498 1499 1500 1500 1501 1502 1502 1503 1504 1505 1506 1508 1509 1510 1511 1512 1514 1515 1516 1518
1492 1495 1498 1498 1498 1491 1484 1482 1482 1485 1485 1482 1483 1484 1486 1487 1488 1489 1490 1491 1492 1492 1493 1494 1496 1497 1498 1498 1499 1500 1500 1501 1502 1503 1504 1505 1506 1507 1508 1510 1511 1513 1514 1515
1490 1492 1497 1497 1500 1498 1487 1482 1482 1484 1488 1484 1484 1485 1486 1487 1490 1490 1490 1491 1491 1491 1492 1492 1493 1494 1495 1496 1496 1497 1498 1499 1499 1500 1502 1503 1504 1505 1506 1507 1508 1510 1511 1512
1493 1493 1496 1497 1497 1490 1485 1483 1483 1492 1491 1487 1486 1487 1488 1488 1489 1490 1489 1489 1490 1490 1490 1490 1491 1491 1492 1493 1493 1494 1495 1496 1497 1498 1499 1500 1501 1502 1503 1504 1505 1507 1508 1509
1491 1493 1493 1492 1495 1494 1486 1485 1487 1490 1488 1488 1488 1488 1488 1488 1488 1488 1488 1488 1488 1488 1489 1488 1488 1488 1489 1490 1490 1491 1492 1493 1494 1495 1496 1497 1498 1499 1500 1501 1502 1503 1504 1506
1488 1489 1489 1490 1492 1488 1487 1488 1488 1488 1488 1488 1489 1488 1488 1488 1488 1488 1487 1487 1487 1487 1487 1486 1486 1486 1486 1487 1487 1488 1489 1489 1491 1492 1493 1494 1495 1496 1496 1497 1498 1500 1501 1502
1486 1486 1487 1487 1486 1486 1487 1487 1488 1488 1488 1488 1488 1488 1488 1487 1487 1487 1486 1486 1485 1485 1484 1484 1484 1483 1483 1483 1483 1484 1485 1486 1487 1488 1489 1491 1492 1492 1493 1494 1495 1496 1497 1498
1489 1489 1488 1487 1486 1486 1486 1487 1487 1487 1487 1487 1487 1486 1486 1486 1485 1485 1484 1483 1483 1482 1482 1481 1481 1481 1480 1480 1480 1481 1482 1483 1483 1484 1486 1487 1488 1489 1490 1491 1492 1492 1493 1494
1489 1489 1489 1487 1486 1486 1486 1485 1485 1485 1485 1485 1485 1484 1484 1484 1483 1482 1481 1481 1481 1480 1479 1479 1478 1478 1477 1477 1477 1478 1478 1479 1480 1481 1482 1483 1484 1485 1486 1487 1487 1489 1490 1491